WS6A-13 Weather Reports


time (UTC)temp
F
wind
direction
speed
knots
gust
knots
rain 1hr
in
rain 24hr
in
rain mn
in
humidity
%
barometer
mb
20260903193004 94 49 0.0 4.3 0.00 0.00 0.00 61 1012.7
20260903191503 93 158 0.0 5.2 0.00 0.00 0.00 63 1012.9
20260903184504 93 318 0.9 4.3 0.00 0.00 0.00 61 1013.1
20260903183004 93 61 0.9 2.6 0.00 0.00 0.00 61 1013.2
20260903181504 93 28 0.9 4.3 0.00 0.00 0.00 61 1013.3
20260903173004 94 181 0.9 2.6 0.00 0.00 0.00 65 1013.7
20260903171503 93 5 0.0 2.6 0.00 0.00 0.00 64 1013.8
20260903170014 92 84 0.0 2.6 0.00 0.00 0.00 65 1013.9
20260903163004 92 160 0.0 2.6 0.00 0.00 0.00 68 1014.2
20260903161504 91 68 0.0 1.7 0.00 0.00 0.00 66 1014.4
20260903154505 89 89 0.0 2.6 0.00 0.00 0.00 71 1014.4
20260903153004 88 142 0.0 2.6 0.00 0.00 0.00 73 1014.4
20260903150008 87 127 0.0 0.0 0.00 0.00 0.00 74 1014.3
20260903144504 86 70 0.0 0.0 0.00 0.00 0.00 76 1014.3
20260903143004 84 152 0.0 0.0 0.00 0.00 0.00 77 1014.3
20260903134504 80 249 0.0 0.9 0.00 0.00 0.00 84 1014.4
20260903133004 78 249 0.0 0.0 0.00 0.00 0.00 89 1014.6
20260903131504 77 249 0.0 0.0 0.00 0.00 0.00 92 1014.7
20260903130004 76 249 0.0 0.0 0.00 0.00 0.00 93 1014.8
20260903123004 75 249 0.0 0.0 0.00 0.00 0.00 94 1014.9
20260903121504 74 249 0.0 0.0 0.00 0.00 0.00 93 1015.0
20260903120004 73 249 0.0 0.0 0.00 0.00 0.00 93 1014.9
20260903114504 73 249 0.0 0.0 0.00 0.00 0.00 93 1014.9
20260903113004 73 249 0.0 0.0 0.00 0.00 0.00 92 1014.6
20260903110004 74 249 0.0 0.0 0.00 0.00 0.00 92 1014.4
20260903103004 74 249 0.0 0.0 0.00 0.00 0.00 91 1014.1
20260903101503 74 249 0.0 0.0 0.00 0.00 0.00 92 1014.1
20260903100004 74 249 0.0 0.0 0.00 0.00 0.00 91 1014.0
20260903094504 74 249 0.0 0.0 0.00 0.00 0.00 92 1014.0
20260903093004 75 249 0.0 0.0 0.00 0.00 0.00 91 1014.0
20260903091504 75 249 0.0 0.0 0.00 0.00 0.00 91 1013.9
20260903084504 75 249 0.0 0.0 0.00 0.00 0.00 91 1013.8
20260903083003 75 249 0.0 0.0 0.00 0.00 0.00 91 1013.8
20260903081504 75 249 0.0 0.0 0.00 0.00 0.00 91 1013.8
20260903074504 76 249 0.0 0.0 0.00 0.00 0.00 90 1013.8
20260903073004 76 249 0.0 0.0 0.00 0.00 0.00 91 1013.8
20260903071503 76 249 0.0 0.0 0.00 0.00 0.00 91 1013.7
20260903061504 75 249 0.0 0.0 0.00 0.00 0.00 91 1013.8
20260903060003 75 249 0.0 0.0 0.00 0.00 0.00 90 1013.8
20260903054504 75 249 0.0 0.0 0.00 0.00 0.00 90 1013.7
20260903053004 76 249 0.0 0.0 0.00 0.00 0.00 90 1013.7
20260903051504 76 249 0.0 0.0 0.00 0.00 0.00 89 1013.6
20260903050004 76 249 0.0 0.0 0.00 0.00 0.00 89 1013.5
20260903044504 76 249 0.0 0.0 0.00 0.00 0.00 89 1013.4
20260903041504 76 249 0.0 0.0 0.00 0.00 0.00 88 1013.4
20260903040003 77 249 0.0 0.0 0.00 0.00 0.00 88 1013.3
20260903034504 77 249 0.0 0.0 0.00 0.00 0.00 88 1013.4
20260903033004 77 249 0.0 0.0 0.00 0.00 0.00 88 1013.5
20260903030004 77 249 0.0 0.0 0.00 0.00 0.00 87 1013.8
20260903024504 78 249 0.0 0.0 0.00 0.00 0.00 87 1013.8
20260903023004 78 249 0.0 0.0 0.00 0.00 0.00 87 1013.9
20260903021504 78 249 0.0 0.0 0.00 0.00 0.00 86 1013.9
20260903014504 79 249 0.0 0.0 0.00 0.00 0.00 85 1013.8
20260903013004 79 249 0.0 0.0 0.00 0.00 0.00 84 1013.7
20260903010004 80 249 0.0 0.0 0.00 0.00 0.00 83 1013.5
20260903004504 81 249 0.0 0.0 0.00 0.00 0.00 82 1013.4
20260903003004 82 249 0.0 0.0 0.00 0.00 0.00 80 1013.2
20260903000004 84 249 0.0 0.0 0.00 0.00 0.00 78 1013.2
20260902234504 85 249 0.0 0.0 0.00 0.00 0.00 78 1013.1
20260902233004 86 249 0.0 0.0 0.00 0.00 0.00 77 1013.1
20260902231504 87 249 0.0 0.0 0.00 0.00 0.00 74 1013.1
20260902230004 88 249 0.0 0.0 0.00 0.00 0.00 74 1013.2
20260902224504 88 249 0.0 0.0 0.00 0.00 0.00 72 1013.2
20260902221504 89 251 0.0 0.0 0.00 0.00 0.00 69 1013.2
20260902220004 90 251 0.0 1.7 0.00 0.00 0.00 69 1013.3
20260902214504 90 147 0.0 0.0 0.00 0.00 0.00 69 1013.4
20260902213004 90 142 0.0 0.0 0.00 0.00 0.00 68 1013.4
20260902211504 91 169 0.0 0.0 0.00 0.00 0.00 68 1013.4
20260902210004 91 79 0.0 4.3 0.00 0.00 0.00 65 1013.6
20260902204504 92 244 0.0 0.0 0.00 0.00 0.00 65 1013.7
20260902203004 92 244 0.0 0.0 0.00 0.00 0.00 61 1013.7
20260902201504 94 63 0.0 1.7 0.00 0.00 0.00 60 1013.7
20260902194504 95 252 0.9 2.6 0.00 0.00 0.00 60 1014.0